Starlink 31851

operational
NORAD ID: 59844 Int'l Des: 2024-097 Owner: SPXS Country: US Constellation: starlink
LEOCIRCULAR

Starlink 31851について

説明を読み込み中...

リアルタイム位置

3D地球を読み込み中...

次回通過

高度履歴

Altitude vs Time

uPlot chart will show altitude changes over time

軌道要素

1 59844U 24097K 25351.13848540 -.00003355 00000-0 -11253-3 0 9994
2 59844 43.0039 20.3972 0001128 277.6240 82.4484 15.27553504 89299
Epoch: Dec 17, 2025 • Age: 10 hours

現在のステータス

高度 484.4 km
速度 7.63 km/s
衛星直下点 31.36°N, 137.93°E
打ち上げ日 May 23, 2024
運用期間 1.5 years
タイプ internet

技術仕様

分類 Payload
質量 730.00 kg
乾燥質量 700.00 kg
総質量 730.00 kg
長さ 0.30 m
直径 4.10 m
スパン 29.00 m
形状 Box + pan
製造者 SPXS
バスタイプ Starlink V2M
フェーズステータス In Orbit
所有者/国 SPXS/US

大規模コンステレーション

Loading constellations...